Showing default

SUPERVIEW NEO-2 06, 68378

Orbit data source: Space-Track

SUPERVIEW NEO-2 06, 68378 is a payload satellite owned by Siwei (CN) in SSO that was launched on Wed, 25 Mar 2026 UTC via a CHANG ZHENG 2D launch vehicle from the Taiyaun Space Center, China (TSC). Payload-class satellites include a variety of spacecraft equipped with specific instruments for various scientific and technological missions. These include communications satellites like Starlink; space stations such as the ISS; scientific satellites like the Hubble; Earth observation satellites from companies like Planet Labs, Umbra, and HawkEye 360; GPS; miniature CubeSats for education and research; and military/defense satellites.

Loading next visibility...
Identifier
68378, 2026-062B
Orbit
SSO
Country
Flag of CNCN / PRC
Related business
Manufacturer
DFH
Mission
Operational spacecraft
Bus & Motor
SIWEI, Unknown motor
Mass
600 kg wet, ~500 kg dry
Launch date (UTC)
2026-03-25 (3 months ago)
Launch vehicle
CHANG ZHENG 2D
Launch site
Taiyaun Space Center, China (TSC)
Object type
Payload
Rocket body
Debris
Shape & HBR
Unknown shape, 14.5 m
Radar Cross Section
Large (>1 m²)

Expand to show TLE details & history
Last TLE update: 2 days ago

TLE from 2 days ago
0 SUPERVIEW NEO-2 06
1 68378U 26062B   26169.99397415  .00001757  00000-0  85451-4 0  9996
2 68378  97.4360 177.2771 0001576 103.5667 256.5744 15.19721039 12927
Epoch: 2026-06-18T23:51Z
TLE epoch observation values (Epoch: 2026-06-18T23:51:19.366Z)
Latitude
0.00002°
Longitude
-87.78292°
Altitude
510.024 km
Speed
7.609 km/s
True Right ascension
11h 49m 06s
True Declination
0° 00' 00"
Sunlit
Object was in daylight at epoch
Visualization orbit readout
Latitude
Unknown
Longitude
Unknown
Altitude
Unknown
Speed
Unknown
Apparent Right ascension
Unknown
Apparent Declination
Unknown
Sunlit
N/A
Visualization observer readout
Local Sidereal Time
07:20:44
Azimuth
Unknown
Elevation
Unknown
Doppler factor
Unknown
Orbital elements
Apogee altitude
504.735 km
Perigee altitude
502.566 km
Semi-major axis
6,881.787 km
Eccentricity
0.00016
Inclination
97.436°
RAAN
177.2771°
Arg. of periapsis
103.5667°
True anomaly
256.55683°
Mean anomaly
256.5744°
Eccentric anomaly
256.56562°
Mean motion
3.80182 °/min
Orbital period
94.69 mins
BSTAR
0.000085451
Loading maneuver chart data...
Computing Atmospheric mass density...
Loading historical data...
Loading historical data...
Loading historical data...
Loading historical data...
Loading historical data...
Loading historical data...
Loading historical data...
Other satellites on launch #62 in the year 2026 (2026-03-25 UTC)

Documentation

Showing up to 5 results
|